GW1374 Weather Reports


Display with metric or nautical units.
time (UTC)temp
F
wind
direction
speed
MPH
gust
MPH
rain 1hr
in
rain 24hr
in
rain mn
in
humidity
%
barometer
mb
20260906030051 59 0 0.0 2.0 0.00 0.00 0.00 92 1014.4
20260906024601 60 0 0.0 1.0 0.00 0.00 0.00 92 1014.5
20260906023101 60 0 0.0 2.0 0.00 0.00 0.00 91 1014.5
20260906021556 60 26 0.0 3.0 0.00 0.00 0.00 91 1014.3
20260906020053 61 334 1.0 2.0 0.00 0.00 0.00 90 1014.4
20260906014553 61 0 0.0 3.0 0.00 0.00 0.00 89 1014.2
20260906013059 62 9 1.0 3.0 0.00 0.00 0.00 89 1014.1
20260906011552 62 34 1.0 2.0 0.00 0.00 0.00 88 1014.1
20260906010054 62 19 1.0 3.0 0.00 0.00 0.00 87 1014.0
20260906004557 63 0 1.0 3.0 0.00 0.00 0.00 86 1014.1
20260906003054 63 19 1.0 3.0 0.00 0.00 0.00 86 1013.7
20260906001551 63 336 1.0 3.0 0.00 0.00 0.00 86 1013.7
20260906000059 64 26 1.0 3.0 0.00 0.00 0.00 85 1013.5
20260905234602 64 9 1.0 2.0 0.00 0.00 0.00 84 1013.6
20260905233053 65 34 0.0 1.0 0.00 0.00 0.00 82 1013.7
20260905231558 66 0 0.0 2.0 0.00 0.00 0.00 81 1013.7
20260905230057 66 51 0.0 2.0 0.00 0.00 0.00 81 1013.6
20260905224552 67 34 1.0 3.0 0.00 0.00 0.00 80 1013.5
20260905223051 67 265 0.0 4.0 0.00 0.00 0.00 80 1013.5
20260905221557 67 338 1.0 3.0 0.00 0.00 0.00 79 1013.4
20260905220052 68 51 1.0 3.0 0.00 0.00 0.00 79 1013.3
20260905214552 68 34 0.0 4.0 0.00 0.00 0.00 78 1013.2
20260905213101 68 334 1.0 6.0 0.00 0.00 0.00 76 1012.9
20260905211606 69 22 1.0 3.0 0.00 0.00 0.00 74 1012.7
20260905210106 69 309 1.0 2.0 0.00 0.00 0.00 77 1012.8
20260905204608 69 9 1.0 6.0 0.00 0.00 0.00 75 1012.7
20260905203101 69 0 1.0 5.0 0.00 0.00 0.00 76 1012.8
20260905201557 69 238 0.0 4.0 0.00 0.00 0.00 76 1012.8
20260905200112 69 9 1.0 6.0 0.00 0.00 0.00 78 1012.8
20260905194607 69 309 0.0 4.0 0.00 0.00 0.00 78 1012.9
20260905193059 69 34 0.0 4.0 0.00 0.00 0.00 77 1012.7
20260905191552 69 51 0.0 2.0 0.00 0.00 0.00 76 1012.9
20260905190051 69 0 0.0 4.0 0.00 0.00 0.00 72 1012.8
20260905184559 68 309 0.0 3.0 0.00 0.00 0.00 76 1012.9
20260905183057 69 0 0.0 6.0 0.00 0.00 0.00 76 1012.9
20260905181551 69 68 1.0 3.0 0.00 0.00 0.00 74 1012.8
20260905174555 68 0 1.0 5.0 0.00 0.00 0.00 76 1012.9
20260905173100 69 72 0.0 3.0 0.00 0.00 0.00 73 1012.9
20260905171559 68 26 0.0 3.0 0.00 0.00 0.00 76 1013.2
20260905170052 68 34 0.0 4.0 0.00 0.00 0.00 78 1013.2
20260905164601 68 0 1.0 3.0 0.00 0.00 0.00 76 1013.1
20260905163058 68 0 0.0 3.0 0.00 0.00 0.00 75 1013.2
20260905161555 68 298 1.0 5.0 0.00 0.00 0.00 76 1013.3
20260905160052 67 292 1.0 3.0 0.00 0.00 0.00 78 1013.2
20260905154603 68 34 1.0 3.0 0.00 0.00 0.00 77 1013.3
20260905153048 67 0 1.0 4.0 0.00 0.00 0.00 79 1013.4
20260905151601 67 15 1.0 4.0 0.00 0.00 0.00 79 1013.4
20260905150051 66 57 1.0 3.0 0.00 0.00 0.00 81 1013.5
20260905144558 65 61 1.0 4.0 0.00 0.00 0.00 81 1013.5
20260905143059 65 334 1.0 7.0 0.00 0.00 0.00 83 1013.4
20260905141554 65 291 1.0 5.0 0.00 0.00 0.00 84 1013.6
20260905140052 64 108 0.0 5.0 0.00 0.00 0.00 87 1013.4
20260905134557 63 93 1.0 5.0 0.00 0.00 0.00 88 1013.4
20260905133057 62 323 1.0 4.0 0.00 0.00 0.00 89 1013.3
20260905131606 62 0 1.0 3.0 0.00 0.00 0.00 92 1013.1
20260905130058 61 137 0.0 3.0 0.00 0.00 0.00 93 1013.3
20260905124554 60 15 1.0 5.0 0.00 0.00 0.00 95 1013.6
20260905123052 59 83 0.0 3.0 0.00 0.00 0.00 96 1013.8
20260905121549 59 0 0.0 2.0 0.00 0.00 0.00 96 1013.7
20260905120054 58 178 0.0 2.0 0.00 0.00 0.00 96 1013.5
20260905114553 58 0 0.0 1.0 0.00 0.00 0.00 96 1013.0
20260905113052 58 0 0.0 2.0 0.00 0.00 0.00 96 1013.0
20260905111557 58 0 0.0 2.0 0.00 0.00 0.00 96 1013.0
20260905110107 58 0 0.0 2.0 0.00 0.00 0.00 95 1012.9
20260905104554 58 0 0.0 2.0 0.00 0.00 0.00 95 1012.6
20260905103053 58 9 0.0 1.0 0.00 0.00 0.00 95 1012.5
20260905101609 59 0 0.0 1.0 0.00 0.00 0.00 95 1012.2
20260905100052 59 0 0.0 2.0 0.00 0.00 0.00 95 1012.1
20260905094549 59 0 0.0 2.0 0.00 0.00 0.00 94 1011.9
20260905093120 59 0 0.0 3.0 0.00 0.00 0.00 94 1012.1
20260905091603 59 0 0.0 3.0 0.00 0.00 0.00 94 1011.9
20260905090052 60 0 0.0 3.0 0.00 0.00 0.00 94 1012.1
20260905084602 60 0 0.0 2.0 0.00 0.00 0.00 94 1012.0
20260905083054 60 0 0.0 3.0 0.00 0.00 0.00 94 1012.1
20260905081553 60 309 1.0 3.0 0.00 0.00 0.00 93 1012.1
20260905080100 60 0 0.0 7.0 0.00 0.00 0.00 93 1012.2
20260905074550 60 0 1.0 4.0 0.00 0.00 0.00 93 1012.3
20260905073054 61 341 1.0 2.0 0.00 0.00 0.00 93 1012.3
20260905071553 61 291 0.0 2.0 0.00 0.00 0.00 92 1012.5
20260905070055 61 0 0.0 3.0 0.00 0.00 0.00 93 1012.4
20260905064550 61 325 1.0 6.0 0.00 0.01 0.00 92 1012.7
20260905063058 61 346 0.0 5.0 0.00 0.01 0.00 92 1012.6
20260905061553 61 309 0.0 3.0 0.00 0.01 0.00 92 1012.9
20260905054558 60 325 1.0 2.0 0.00 0.01 0.00 91 1013.0
20260905053054 61 325 0.0 2.0 0.00 0.01 0.00 89 1013.3
20260905051553 61 334 0.0 2.0 0.00 0.01 0.00 88 1013.3
20260905044604 62 93 0.0 2.0 0.00 0.14 0.00 85 1013.2
20260905043055 62 291 0.0 3.0 0.00 0.14 0.00 85 1013.5
20260905041553 62 319 0.0 3.0 0.00 0.14 0.00 85 1013.5
20260905040103 63 325 0.0 2.0 0.00 0.14 0.00 84 1013.5
20260905034600 63 22 0.0 2.0 0.00 0.37 0.14 84 1013.5
20260905033054 63 34 0.0 2.0 0.00 0.37 0.14 82 1013.5
20260905031554 63 9 0.0 2.0 0.00 0.37 0.14 82 1013.5